Location: Bailey Inglish Elementary School
(33.5826°N, 96.1780°W)
Time: 14:39:16
(UTC+00:00)

ISS - Pass Details

Date: 28 June 2024
Orbit: 410 x 424 km, 51.6° (Epoch: 16 July)

Event Time Altitude Azimuth Distance (km) Brightness Sun altitude
Exits shadow 08:45:16 15° 330° (NNW) 1,226 -1.1 -24.5°
Drops below altitude 10° 08:47:12 10° 6° (N) 1,486 -0.2 -24.2°
Sets 08:50:00 0° 31° (NNE) 2,355 1.5 -23.9°
